Time,TemperatureF,DewpointF,PressureIn,WindDirection,WindDirectionDegrees,WindSpeedMPH,WindSpeedGustMPH,Humidity,HourlyPrecipIn,Conditions,Clouds,dailyrainin,SolarRadiationWatts/m^2,SoftwareType,DateUTC
2013-07-06 00:00:00,70.6,63.0,29.86,SSE,161,0.0,1.0,77,0.00,,BKN009,0.00,0.00,VWS V14.01,2013-07-06 05:00:00,
2013-07-06 00:04:00,70.6,63.0,29.86,SSW,208,1.0,3.0,77,0.00,,CLR,0.00,0.00,VWS V14.01,2013-07-06 05:04:00,
2013-07-06 00:05:00,70.6,63.4,29.86,SW,223,0.0,3.0,78,0.00,,BKN009,0.00,0.00,VWS V14.01,2013-07-06 05:05:00,
2013-07-06 00:09:00,70.6,63.0,29.86,SW,223,0.0,0.0,77,0.00,,CLR,0.00,0.00,VWS V14.01,2013-07-06 05:09:00,
2013-07-06 00:10:00,70.6,63.4,29.86,East,92,0.0,1.0,78,0.00,,BKN009,0.00,0.00,VWS V14.01,2013-07-06 05:10:00,
2013-07-06 00:14:00,70.5,63.3,29.86,ESE,112,0.0,2.0,78,0.00,,CLR,0.00,0.00,VWS V14.01,2013-07-06 05:14:00,
2013-07-06 00:15:00,70.5,63.3,29.87,ESE,112,0.0,2.0,78,0.00,,BKN009,0.00,0.00,VWS V14.01,2013-07-06 05:15:00,
2013-07-06 00:19:00,70.5,63.3,29.87,ESE,112,0.0,1.0,78,0.00,,CLR,0.00,0.00,VWS V14.01,2013-07-06 05:19:00,
2013-07-06 00:20:00,70.4,63.2,29.87,ESE,112,0.0,1.0,78,0.00,,BKN009,0.00,0.00,VWS V14.01,2013-07-06 05:20:00,
2013-07-06 00:24:00,70.4,63.6,29.87,SSW,201,0.0,2.0,79,0.00,,CLR,0.00,0.00,VWS V14.01,2013-07-06 05:24:00,
2013-07-06 00:25:00,70.4,63.6,29.87,SSW,201,0.0,2.0,79,0.00,,BKN009,0.00,0.00,VWS V14.01,2013-07-06 05:25:00,
2013-07-06 00:29:00,70.3,63.5,29.87,East,100,0.0,2.0,79,0.00,,CLR,0.00,0.00,VWS V14.01,2013-07-06 05:29:00,
2013-07-06 00:30:00,70.3,63.5,29.87,East,100,0.0,2.0,79,0.00,,BKN009,0.00,0.00,VWS V14.01,2013-07-06 05:30:00,
2013-07-06 00:34:00,70.2,63.4,29.87,East,100,0.0,0.0,79,0.00,,CLR,0.00,0.00,VWS V14.01,2013-07-06 05:34:00,
2013-07-06 00:35:00,70.2,63.4,29.87,East,100,0.0,0.0,79,0.00,,BKN009,0.00,0.00,VWS V14.01,2013-07-06 05:35:00,
2013-07-06 00:39:00,70.2,63.8,29.87,East,100,0.0,1.0,80,0.00,,CLR,0.00,0.00,VWS V14.01,2013-07-06 05:39:00,
2013-07-06 00:40:00,70.2,63.8,29.87,East,100,0.0,1.0,80,0.00,,BKN009,0.00,0.00,VWS V14.01,2013-07-06 05:40:00,
2013-07-06 00:44:00,70.1,63.7,29.88,ESE,105,0.0,1.0,80,0.00,,CLR,0.00,0.00,VWS V14.01,2013-07-06 05:44:00,
2013-07-06 00:45:00,70.0,63.5,29.88,ESE,105,0.0,1.0,80,0.00,,BKN009,0.00,0.00,VWS V14.01,2013-07-06 05:45:00,
2013-07-06 00:49:00,70.0,63.5,29.88,ESE,105,0.0,1.0,80,0.00,,CLR,0.00,0.00,VWS V14.01,2013-07-06 05:49:00,
2013-07-06 00:50:00,69.9,63.5,29.88,ESE,105,0.0,1.0,80,0.00,,BKN009,0.00,0.00,VWS V14.01,2013-07-06 05:50:00,
2013-07-06 00:54:00,69.8,63.7,29.88,ESE,105,0.0,0.0,81,0.00,,CLR,0.00,0.00,VWS V14.01,2013-07-06 05:54:00,
2013-07-06 00:55:00,69.8,63.7,29.88,ESE,105,0.0,2.0,81,0.00,,BKN009,0.00,0.00,VWS V14.01,2013-07-06 05:55:00,
2013-07-06 00:59:00,69.7,63.6,29.88,ESE,105,0.0,2.0,81,0.00,,CLR,0.00,0.00,VWS V14.01,2013-07-06 05:59:00,
2013-07-06 01:00:00,69.7,63.6,29.88,ESE,105,0.0,2.0,81,0.00,,BKN009,0.00,0.00,VWS V14.01,2013-07-06 06:00:00,
2013-07-06 01:04:00,69.6,63.5,29.88,SE,144,0.0,2.0,81,0.00,,CLR,0.00,0.00,VWS V14.01,2013-07-06 06:04:00,
2013-07-06 01:05:00,69.6,63.5,29.88,SE,144,0.0,2.0,81,0.00,,BKN009,0.00,0.00,VWS V14.01,2013-07-06 06:05:00,
2013-07-06 01:09:00,69.5,63.4,29.88,SE,144,0.0,2.0,81,0.00,,CLR,0.00,0.00,VWS V14.01,2013-07-06 06:09:00,
2013-07-06 01:10:00,69.5,63.4,29.88,SE,144,0.0,2.0,81,0.00,,BKN009,0.00,0.00,VWS V14.01,2013-07-06 06:10:00,
2013-07-06 01:15:00,69.4,63.7,29.88,NNE,17,0.0,2.0,82,0.00,,CLR,0.00,0.00,VWS V14.01,2013-07-06 06:15:00,
2013-07-06 01:20:00,69.4,63.7,29.88,NE,34,0.0,1.0,82,0.00,,CLR,0.00,0.00,VWS V14.01,2013-07-06 06:20:00,
2013-07-06 01:25:00,69.3,63.6,29.88,SE,137,0.0,2.0,82,0.00,,CLR,0.00,0.00,VWS V14.01,2013-07-06 06:25:00,
2013-07-06 01:30:00,69.2,63.8,29.87,ESE,107,0.0,3.0,83,0.00,,CLR,0.00,0.00,VWS V14.01,2013-07-06 06:30:00,
2013-07-06 01:35:00,69.2,63.8,29.87,ESE,107,1.0,1.0,83,0.00,,CLR,0.00,0.00,VWS V14.01,2013-07-06 06:35:00,
2013-07-06 01:40:00,69.0,63.6,29.87,ESE,107,0.0,0.0,83,0.00,,CLR,0.00,0.00,VWS V14.01,2013-07-06 06:40:00,
2013-07-06 01:45:00,69.0,63.6,29.88,ESE,107,0.0,1.0,83,0.00,,CLR,0.00,0.00,VWS V14.01,2013-07-06 06:45:00,
2013-07-06 01:50:00,68.9,63.5,29.88,ESE,107,0.0,0.0,83,0.00,,CLR,0.00,0.00,VWS V14.01,2013-07-06 06:50:00,
2013-07-06 01:55:00,68.8,63.4,29.88,ESE,107,0.0,2.0,83,0.00,,CLR,0.00,0.00,VWS V14.01,2013-07-06 06:55:00,
2013-07-06 02:00:00,68.7,63.3,29.88,ESE,107,0.0,2.0,83,0.00,,CLR,0.00,0.00,VWS V14.01,2013-07-06 07:00:00,
2013-07-06 02:05:00,68.7,63.7,29.88,SSE,161,0.0,2.0,84,0.00,,CLR,0.00,0.00,VWS V14.01,2013-07-06 07:05:00,
2013-07-06 02:10:00,68.6,63.6,29.88,SSE,155,0.0,2.0,84,0.00,,CLR,0.00,0.00,VWS V14.01,2013-07-06 07:10:00,
2013-07-06 02:15:00,68.5,63.5,29.88,SSE,155,0.0,0.0,84,0.00,,CLR,0.00,0.00,VWS V14.01,2013-07-06 07:15:00,
2013-07-06 02:20:00,68.4,63.4,29.88,SSE,155,0.0,0.0,84,0.00,,CLR,0.00,0.00,VWS V14.01,2013-07-06 07:20:00,
2013-07-06 02:25:00,68.3,63.3,29.88,SSE,155,0.0,0.0,84,0.00,,CLR,0.00,0.00,VWS V14.01,2013-07-06 07:25:00,
2013-07-06 02:30:00,68.2,63.2,29.88,SSE,155,0.0,0.0,84,0.00,,CLR,0.00,0.00,VWS V14.01,2013-07-06 07:30:00,
2013-07-06 02:35:00,68.1,63.1,29.88,SSE,155,0.0,0.0,84,0.00,,CLR,0.00,0.00,VWS V14.01,2013-07-06 07:35:00,
2013-07-06 02:40:00,68.0,63.3,29.88,SSE,155,0.0,1.0,85,0.00,,CLR,0.00,0.00,VWS V14.01,2013-07-06 07:40:00,
2013-07-06 02:45:00,67.9,63.2,29.87,SSE,153,0.0,1.0,85,0.00,,CLR,0.00,0.00,VWS V14.01,2013-07-06 07:45:00,
2013-07-06 02:50:00,67.7,63.4,29.87,SSE,153,0.0,2.0,86,0.00,,CLR,0.00,0.00,VWS V14.01,2013-07-06 07:50:00,
2013-07-06 02:55:00,67.6,63.3,29.87,SSE,153,0.0,0.0,86,0.00,,CLR,0.00,0.00,VWS V14.01,2013-07-06 07:55:00,
2013-07-06 03:00:00,67.6,63.3,29.87,SSE,153,0.0,1.0,86,0.00,,CLR,0.00,0.00,VWS V14.01,2013-07-06 08:00:00,
2013-07-06 03:05:00,67.5,63.2,29.87,SSE,153,0.0,0.0,86,0.00,,CLR,0.00,0.00,VWS V14.01,2013-07-06 08:05:00,
2013-07-06 03:10:00,67.4,63.1,29.87,SSE,159,2.0,2.0,86,0.00,,CLR,0.00,0.00,VWS V14.01,2013-07-06 08:10:00,
2013-07-06 03:15:00,67.4,63.1,29.87,SE,146,0.0,0.0,86,0.00,,CLR,0.00,0.00,VWS V14.01,2013-07-06 08:15:00,
2013-07-06 03:20:00,67.3,63.3,29.87,East,95,0.0,0.0,87,0.00,,CLR,0.00,0.00,VWS V14.01,2013-07-06 08:20:00,
2013-07-06 03:25:00,67.3,63.3,29.87,East,95,0.0,1.0,87,0.00,,BKN009,0.00,0.00,VWS V14.01,2013-07-06 08:25:00,
2013-07-06 03:26:00,67.3,63.3,29.87,East,96,0.0,1.0,87,0.00,,CLR,0.00,0.00,VWS V14.01,2013-07-06 08:26:00,
2013-07-06 03:30:00,67.4,63.4,29.86,SE,133,0.0,3.0,87,0.00,,BKN009,0.00,0.00,VWS V14.01,2013-07-06 08:30:00,
2013-07-06 03:31:00,67.3,63.3,29.86,SE,133,1.0,1.0,87,0.00,,CLR,0.00,0.00,VWS V14.01,2013-07-06 08:31:00,
2013-07-06 03:35:00,67.3,63.0,29.86,SE,129,0.0,1.0,86,0.00,,BKN009,0.00,0.00,VWS V14.01,2013-07-06 08:35:00,
2013-07-06 03:36:00,67.3,63.0,29.86,SSE,153,1.0,2.0,86,0.00,,CLR,0.00,0.00,VWS V14.01,2013-07-06 08:36:00,
2013-07-06 03:40:00,67.3,63.0,29.86,SSE,148,0.0,2.0,86,0.00,,BKN009,0.00,0.00,VWS V14.01,2013-07-06 08:40:00,
2013-07-06 03:41:00,67.3,63.0,29.86,SSE,148,0.0,0.0,86,0.00,,CLR,0.00,0.00,VWS V14.01,2013-07-06 08:41:00,
2013-07-06 03:45:00,67.3,63.0,29.86,SSE,148,0.0,1.0,86,0.00,,BKN009,0.00,0.00,VWS V14.01,2013-07-06 08:45:00,
2013-07-06 03:46:00,67.3,63.0,29.86,SSE,148,0.0,0.0,86,0.00,,CLR,0.00,0.00,VWS V14.01,2013-07-06 08:46:00,
2013-07-06 03:50:00,67.2,63.2,29.86,SSE,148,0.0,2.0,87,0.00,,BKN009,0.00,0.00,VWS V14.01,2013-07-06 08:50:00,
2013-07-06 03:51:00,67.2,63.2,29.86,SSE,148,0.0,0.0,87,0.00,,CLR,0.00,0.00,VWS V14.01,2013-07-06 08:51:00,
2013-07-06 03:55:00,67.2,63.2,29.86,ESE,119,0.0,3.0,87,0.00,,BKN009,0.00,0.00,VWS V14.01,2013-07-06 08:55:00,
2013-07-06 03:56:00,67.2,63.2,29.86,ESE,119,0.0,0.0,87,0.00,,CLR,0.00,0.00,VWS V14.01,2013-07-06 08:56:00,
2013-07-06 04:00:00,67.1,63.1,29.86,East,90,0.0,2.0,87,0.00,,BKN009,0.00,0.00,VWS V14.01,2013-07-06 09:00:00,
2013-07-06 04:01:00,67.1,63.1,29.86,East,90,0.0,0.0,87,0.00,,CLR,0.00,0.00,VWS V14.01,2013-07-06 09:01:00,
2013-07-06 04:05:00,67.1,63.1,29.86,East,90,0.0,1.0,87,0.00,,BKN009,0.00,0.00,VWS V14.01,2013-07-06 09:05:00,
2013-07-06 04:06:00,67.1,63.1,29.86,East,90,0.0,0.0,87,0.00,,CLR,0.00,0.00,VWS V14.01,2013-07-06 09:06:00,
2013-07-06 04:10:00,67.1,63.1,29.86,East,90,0.0,2.0,87,0.00,,BKN009,0.00,0.00,VWS V14.01,2013-07-06 09:10:00,
2013-07-06 04:11:00,67.0,63.0,29.86,East,90,0.0,0.0,87,0.00,,CLR,0.00,0.00,VWS V14.01,2013-07-06 09:11:00,
2013-07-06 04:15:00,67.0,63.0,29.86,East,90,0.0,0.0,87,0.00,,BKN009,0.00,0.00,VWS V14.01,2013-07-06 09:15:00,
2013-07-06 04:16:00,67.0,63.0,29.86,East,90,0.0,0.0,87,0.00,,CLR,0.00,0.00,VWS V14.01,2013-07-06 09:16:00,
2013-07-06 04:20:00,66.9,62.9,29.86,ESE,113,0.0,3.0,87,0.00,,BKN009,0.00,0.00,VWS V14.01,2013-07-06 09:20:00,
2013-07-06 04:21:00,66.9,62.9,29.86,ESE,113,0.0,0.0,87,0.00,,CLR,0.00,0.00,VWS V14.01,2013-07-06 09:21:00,
2013-07-06 04:25:00,66.9,62.9,29.86,ESE,114,0.0,2.0,87,0.00,,BKN009,0.00,0.00,VWS V14.01,2013-07-06 09:25:00,
2013-07-06 04:26:00,66.8,62.8,29.86,ESE,105,2.0,3.0,87,0.00,,CLR,0.00,0.00,VWS V14.01,2013-07-06 09:26:00,
2013-07-06 04:30:00,66.8,62.8,29.86,NE,42,0.0,3.0,87,0.00,,BKN009,0.00,0.00,VWS V14.01,2013-07-06 09:30:00,
2013-07-06 04:31:00,66.8,62.8,29.86,East,101,0.0,2.0,87,0.00,,CLR,0.00,0.00,VWS V14.01,2013-07-06 09:31:00,
2013-07-06 04:35:00,66.8,62.8,29.86,ESE,105,0.0,2.0,87,0.00,,BKN009,0.00,0.00,VWS V14.01,2013-07-06 09:35:00,
2013-07-06 04:36:00,66.8,62.8,29.86,ESE,105,0.0,0.0,87,0.00,,CLR,0.00,0.00,VWS V14.01,2013-07-06 09:36:00,
2013-07-06 04:40:00,66.7,62.7,29.86,ESE,105,0.0,0.0,87,0.00,,BKN009,0.00,0.00,VWS V14.01,2013-07-06 09:40:00,
2013-07-06 04:41:00,66.7,62.7,29.86,East,94,0.0,1.0,87,0.00,,CLR,0.00,0.00,VWS V14.01,2013-07-06 09:41:00,
2013-07-06 04:45:00,66.6,62.9,29.86,East,94,0.0,1.0,88,0.00,,BKN009,0.00,0.00,VWS V14.01,2013-07-06 09:45:00,
2013-07-06 04:46:00,66.6,62.9,29.86,East,94,0.0,0.0,88,0.00,,CLR,0.00,0.00,VWS V14.01,2013-07-06 09:46:00,
2013-07-06 04:50:00,66.5,62.8,29.86,ESE,114,0.0,1.0,88,0.00,,BKN009,0.00,0.00,VWS V14.01,2013-07-06 09:50:00,
2013-07-06 04:51:00,66.5,62.8,29.86,ESE,114,0.0,0.0,88,0.00,,CLR,0.00,0.00,VWS V14.01,2013-07-06 09:51:00,
2013-07-06 04:55:00,66.4,62.7,29.86,ESE,114,0.0,1.0,88,0.00,,BKN009,0.00,0.00,VWS V14.01,2013-07-06 09:55:00,
2013-07-06 04:56:00,66.4,62.7,29.86,East,96,0.0,1.0,88,0.00,,CLR,0.00,0.00,VWS V14.01,2013-07-06 09:56:00,
2013-07-06 05:00:00,66.3,62.7,29.85,East,101,0.0,2.0,88,0.00,,BKN009,0.00,0.00,VWS V14.01,2013-07-06 10:00:00,
2013-07-06 05:01:00,66.3,62.6,29.85,East,101,0.0,0.0,88,0.00,,CLR,0.00,0.00,VWS V14.01,2013-07-06 10:01:00,
2013-07-06 05:05:00,66.2,62.5,29.85,East,101,0.0,1.0,88,0.00,,BKN009,0.00,0.00,VWS V14.01,2013-07-06 10:05:00,
2013-07-06 05:06:00,66.2,62.5,29.85,East,94,0.0,1.0,88,0.00,,CLR,0.00,0.00,VWS V14.01,2013-07-06 10:06:00,
2013-07-06 05:10:00,66.2,62.5,29.85,East,94,0.0,1.0,88,0.00,,BKN009,0.00,0.00,VWS V14.01,2013-07-06 10:10:00,
2013-07-06 05:11:00,66.1,62.5,29.85,East,94,0.0,0.0,88,0.00,,CLR,0.00,0.00,VWS V14.01,2013-07-06 10:11:00,
2013-07-06 05:15:00,66.1,62.5,29.85,East,94,0.0,0.0,88,0.00,,BKN009,0.00,0.00,VWS V14.01,2013-07-06 10:15:00,
2013-07-06 05:16:00,66.1,62.5,29.85,East,94,0.0,0.0,88,0.00,,CLR,0.00,0.00,VWS V14.01,2013-07-06 10:16:00,
2013-07-06 05:20:00,66.0,62.3,29.85,East,94,0.0,0.0,88,0.00,,BKN009,0.00,0.00,VWS V14.01,2013-07-06 10:20:00,
2013-07-06 05:21:00,66.0,62.3,29.85,East,94,0.0,0.0,88,0.00,,CLR,0.00,0.00,VWS V14.01,2013-07-06 10:21:00,
2013-07-06 05:25:00,65.9,62.2,29.85,East,94,0.0,0.0,88,0.00,,BKN009,0.00,0.00,VWS V14.01,2013-07-06 10:25:00,
2013-07-06 05:26:00,65.8,62.2,29.85,East,94,0.0,0.0,88,0.00,,CLR,0.00,0.00,VWS V14.01,2013-07-06 10:26:00,
2013-07-06 05:30:00,65.8,62.2,29.86,East,94,0.0,0.0,88,0.00,,BKN009,0.00,0.00,VWS V14.01,2013-07-06 10:30:00,
2013-07-06 05:31:00,65.7,62.0,29.86,East,94,0.0,0.0,88,0.00,,CLR,0.00,0.00,VWS V14.01,2013-07-06 10:31:00,
2013-07-06 05:35:00,65.6,62.0,29.86,East,94,0.0,0.0,88,0.00,,BKN009,0.00,0.00,VWS V14.01,2013-07-06 10:35:00,
2013-07-06 05:37:00,65.6,62.0,29.86,East,94,0.0,0.0,88,0.00,,CLR,0.00,0.00,VWS V14.01,2013-07-06 10:37:00,
2013-07-06 05:40:00,65.5,61.9,29.86,East,94,0.0,0.0,88,0.00,,BKN009,0.00,0.00,VWS V14.01,2013-07-06 10:40:00,
2013-07-06 05:42:00,65.4,61.8,29.86,East,94,0.0,0.0,88,0.00,,CLR,0.00,0.00,VWS V14.01,2013-07-06 10:42:00,
2013-07-06 05:45:00,65.2,61.9,29.86,East,94,0.0,0.0,89,0.00,,BKN009,0.00,0.00,VWS V14.01,2013-07-06 10:45:00,
2013-07-06 05:47:00,65.1,61.8,29.86,East,94,0.0,0.0,89,0.00,,CLR,0.00,0.00,VWS V14.01,2013-07-06 10:47:00,
2013-07-06 05:50:00,65.0,62.0,29.86,East,94,0.0,0.0,90,0.00,,BKN009,0.00,0.00,VWS V14.01,2013-07-06 10:50:00,
2013-07-06 05:52:00,65.0,62.0,29.86,East,94,0.0,0.0,90,0.00,,CLR,0.00,0.00,VWS V14.01,2013-07-06 10:52:00,
2013-07-06 05:55:00,64.8,62.1,29.86,East,94,0.0,0.0,91,0.00,,BKN009,0.00,0.00,VWS V14.01,2013-07-06 10:55:00,
2013-07-06 05:57:00,64.8,62.1,29.86,East,94,0.0,0.0,91,0.00,,CLR,0.00,0.00,VWS V14.01,2013-07-06 10:57:00,
2013-07-06 06:00:00,64.7,62.0,29.87,East,94,0.0,0.0,91,0.00,,BKN009,0.00,0.00,VWS V14.01,2013-07-06 11:00:00,
2013-07-06 06:02:00,64.7,62.0,29.87,East,94,0.0,0.0,91,0.00,,CLR,0.00,0.00,VWS V14.01,2013-07-06 11:02:00,
2013-07-06 06:05:00,64.7,62.0,29.87,East,94,0.0,1.0,91,0.00,,BKN009,0.00,0.00,VWS V14.01,2013-07-06 11:05:00,
2013-07-06 06:07:00,64.6,62.2,29.87,East,94,0.0,1.0,92,0.00,,CLR,0.00,0.00,VWS V14.01,2013-07-06 11:07:00,
2013-07-06 06:10:00,64.6,62.2,29.87,East,95,0.0,1.0,92,0.00,,BKN009,0.00,7.00,VWS V14.01,2013-07-06 11:10:00,
2013-07-06 06:12:00,64.6,62.2,29.87,East,95,0.0,1.0,92,0.00,,CLR,0.00,7.00,VWS V14.01,2013-07-06 11:12:00,
2013-07-06 06:15:00,64.6,62.2,29.87,East,94,0.0,1.0,92,0.00,,BKN009,0.00,9.00,VWS V14.01,2013-07-06 11:15:00,
2013-07-06 06:17:00,64.6,62.2,29.87,East,94,0.0,2.0,92,0.00,,CLR,0.00,11.00,VWS V14.01,2013-07-06 11:17:00,
2013-07-06 06:20:00,64.5,62.1,29.87,East,95,0.0,2.0,92,0.00,,BKN009,0.00,12.00,VWS V14.01,2013-07-06 11:20:00,
2013-07-06 06:22:00,64.5,62.1,29.87,East,99,3.0,3.0,92,0.00,,CLR,0.00,12.00,VWS V14.01,2013-07-06 11:22:00,
2013-07-06 06:25:00,64.5,62.1,29.87,East,88,0.0,3.0,92,0.00,,BKN009,0.00,14.00,VWS V14.01,2013-07-06 11:25:00,
2013-07-06 06:27:00,64.6,62.2,29.87,East,88,0.0,0.0,92,0.00,,CLR,0.00,16.00,VWS V14.01,2013-07-06 11:27:00,
2013-07-06 06:30:00,64.6,62.2,29.88,East,88,0.0,0.0,92,0.00,,BKN009,0.00,18.00,VWS V14.01,2013-07-06 11:30:00,
2013-07-06 06:32:00,64.5,62.1,29.88,East,96,0.0,2.0,92,0.00,,CLR,0.00,19.00,VWS V14.01,2013-07-06 11:32:00,
2013-07-06 06:35:00,64.5,62.1,29.88,East,96,0.0,2.0,92,0.00,,BKN009,0.00,21.00,VWS V14.01,2013-07-06 11:35:00,
2013-07-06 06:37:00,64.5,62.1,29.88,East,96,0.0,0.0,92,0.00,,CLR,0.00,21.00,VWS V14.01,2013-07-06 11:37:00,
2013-07-06 06:40:00,64.5,62.1,29.88,East,96,0.0,1.0,92,0.00,,BKN009,0.00,23.00,VWS V14.01,2013-07-06 11:40:00,
2013-07-06 06:42:00,64.4,62.0,29.88,East,96,0.0,1.0,92,0.00,,CLR,0.00,25.00,VWS V14.01,2013-07-06 11:42:00,
2013-07-06 06:45:00,64.4,62.0,29.88,East,96,0.0,1.0,92,0.00,,BKN009,0.00,26.00,VWS V14.01,2013-07-06 11:45:00,
2013-07-06 06:47:00,64.4,62.0,29.88,East,98,0.0,1.0,92,0.00,,CLR,0.00,28.00,VWS V14.01,2013-07-06 11:47:00,
2013-07-06 06:50:00,64.4,62.0,29.88,East,98,0.0,1.0,92,0.00,,BKN009,0.00,30.00,VWS V14.01,2013-07-06 11:50:00,
2013-07-06 06:52:00,64.4,62.0,29.88,East,98,0.0,0.0,92,0.00,,CLR,0.00,32.00,VWS V14.01,2013-07-06 11:52:00,
2013-07-06 06:55:00,64.4,62.0,29.88,East,98,0.0,0.0,92,0.00,,BKN009,0.00,33.00,VWS V14.01,2013-07-06 11:55:00,
2013-07-06 06:57:00,64.3,61.9,29.88,East,98,0.0,0.0,92,0.00,,CLR,0.00,35.00,VWS V14.01,2013-07-06 11:57:00,
2013-07-06 07:00:00,64.3,61.9,29.89,East,98,0.0,0.0,92,0.00,,BKN009,0.00,39.00,VWS V14.01,2013-07-06 12:00:00,
2013-07-06 07:02:00,64.3,61.9,29.89,East,98,0.0,0.0,92,0.00,,CLR,0.00,39.00,VWS V14.01,2013-07-06 12:02:00,
2013-07-06 07:05:00,64.3,61.9,29.89,East,98,0.0,0.0,92,0.00,,BKN009,0.00,42.00,VWS V14.01,2013-07-06 12:05:00,
2013-07-06 07:07:00,64.3,61.9,29.89,East,98,0.0,0.0,92,0.00,,CLR,0.00,47.00,VWS V14.01,2013-07-06 12:07:00,
2013-07-06 07:10:00,64.3,61.9,29.89,East,98,0.0,0.0,92,0.00,,BKN009,0.00,53.00,VWS V14.01,2013-07-06 12:10:00,
2013-07-06 07:12:00,64.2,61.8,29.89,East,98,0.0,0.0,92,0.00,,CLR,0.00,56.00,VWS V14.01,2013-07-06 12:12:00,
2013-07-06 07:15:00,64.3,62.2,29.89,East,98,0.0,1.0,93,0.00,,BKN009,0.00,60.00,VWS V14.01,2013-07-06 12:15:00,
2013-07-06 07:17:00,64.3,62.2,29.89,East,98,0.0,0.0,93,0.00,,CLR,0.00,62.00,VWS V14.01,2013-07-06 12:17:00,
2013-07-06 07:20:00,64.3,62.2,29.89,East,98,0.0,0.0,93,0.00,,BKN009,0.00,63.00,VWS V14.01,2013-07-06 12:20:00,
2013-07-06 07:22:00,64.3,62.2,29.89,East,98,0.0,1.0,93,0.00,,CLR,0.00,62.00,VWS V14.01,2013-07-06 12:22:00,
2013-07-06 07:25:00,64.3,62.2,29.89,East,98,0.0,1.0,93,0.00,,BKN009,0.00,58.00,VWS V14.01,2013-07-06 12:25:00,
2013-07-06 07:27:00,64.5,62.7,29.89,ESE,107,0.0,2.0,94,0.00,,CLR,0.00,56.00,VWS V14.01,2013-07-06 12:27:00,
2013-07-06 07:30:00,64.6,62.8,29.89,ESE,107,0.0,2.0,94,0.00,,BKN009,0.00,53.00,VWS V14.01,2013-07-06 12:30:00,
2013-07-06 07:32:00,64.8,63.0,29.89,ESE,107,0.0,1.0,94,0.00,,CLR,0.00,53.00,VWS V14.01,2013-07-06 12:32:00,
2013-07-06 07:35:00,64.9,63.1,29.89,ESE,107,0.0,1.0,94,0.00,,BKN009,0.00,53.00,VWS V14.01,2013-07-06 12:35:00,
2013-07-06 07:37:00,65.1,63.3,29.89,WSW,240,0.0,3.0,94,0.00,,CLR,0.00,53.00,VWS V14.01,2013-07-06 12:37:00,
2013-07-06 07:40:00,65.2,63.4,29.89,WSW,240,0.0,3.0,94,0.00,,BKN009,0.00,54.00,VWS V14.01,2013-07-06 12:40:00,
2013-07-06 07:43:00,65.4,63.6,29.89,WSW,240,0.0,1.0,94,0.00,,CLR,0.00,54.00,VWS V14.01,2013-07-06 12:43:00,
2013-07-06 07:45:00,65.5,63.7,29.89,WSW,240,0.0,1.0,94,0.00,,BKN009,0.00,54.00,VWS V14.01,2013-07-06 12:45:00,
2013-07-06 07:48:00,65.6,63.8,29.89,WSW,240,0.0,1.0,94,0.00,,CLR,0.00,54.00,VWS V14.01,2013-07-06 12:48:00,
2013-07-06 07:50:00,65.7,63.9,29.89,WSW,240,0.0,1.0,94,0.00,,BKN009,0.00,67.00,VWS V14.01,2013-07-06 12:50:00,
2013-07-06 07:53:00,65.8,64.0,29.89,WSW,240,0.0,2.0,94,0.00,,CLR,0.00,67.00,VWS V14.01,2013-07-06 12:53:00,
2013-07-06 07:55:00,66.0,64.2,29.89,WSW,240,0.0,2.0,94,0.00,,BKN009,0.00,63.00,VWS V14.01,2013-07-06 12:55:00,
2013-07-06 07:58:00,66.1,64.3,29.89,WSW,240,0.0,0.0,94,0.00,,CLR,0.00,65.00,VWS V14.01,2013-07-06 12:58:00,
2013-07-06 08:00:00,66.3,64.5,29.89,WSW,240,0.0,0.0,94,0.00,,BKN009,0.00,67.00,VWS V14.01,2013-07-06 13:00:00,
2013-07-06 08:03:00,66.5,64.7,29.89,SW,236,0.0,2.0,94,0.00,,CLR,0.00,70.00,VWS V14.01,2013-07-06 13:03:00,
2013-07-06 08:05:00,66.7,64.9,29.89,SW,236,0.0,2.0,94,0.00,,BKN009,0.00,93.00,VWS V14.01,2013-07-06 13:05:00,
2013-07-06 08:08:00,66.9,65.1,29.89,SW,236,0.0,0.0,94,0.00,,CLR,0.00,74.00,VWS V14.01,2013-07-06 13:08:00,
2013-07-06 08:10:00,67.4,65.3,29.89,ENE,57,2.0,2.0,93,0.00,,BKN009,0.00,79.00,VWS V14.01,2013-07-06 13:10:00,
2013-07-06 08:13:00,68.0,65.6,29.89,ENE,57,0.0,2.0,92,0.00,,CLR,0.00,74.00,VWS V14.01,2013-07-06 13:13:00,
2013-07-06 08:15:00,68.3,65.6,29.90,NNE,26,1.0,2.0,91,0.00,,BKN009,0.00,74.00,VWS V14.01,2013-07-06 13:15:00,
2013-07-06 08:18:00,68.9,65.8,29.90,NNE,28,1.0,1.0,90,0.00,,CLR,0.00,76.00,VWS V14.01,2013-07-06 13:18:00,
2013-07-06 08:20:00,69.3,65.6,29.90,East,96,2.0,3.0,88,0.00,,BKN009,0.00,77.00,VWS V14.01,2013-07-06 13:20:00,
2013-07-06 08:23:00,69.6,66.2,29.90,SSE,154,0.0,3.0,89,0.00,,CLR,0.00,90.00,VWS V14.01,2013-07-06 13:23:00,
2013-07-06 08:25:00,70.0,66.3,29.90,SE,138,1.0,4.0,88,0.00,,BKN009,0.00,83.00,VWS V14.01,2013-07-06 13:25:00,
2013-07-06 08:28:00,70.3,66.2,29.90,SE,132,0.0,3.0,87,0.00,,CLR,0.00,86.00,VWS V14.01,2013-07-06 13:28:00,
2013-07-06 08:30:00,70.5,66.4,29.91,SE,132,0.0,3.0,87,0.00,,BKN009,0.00,86.00,VWS V14.01,2013-07-06 13:30:00,
2013-07-06 08:33:00,70.9,66.8,29.91,NE,48,1.0,3.0,87,0.00,,CLR,0.00,90.00,VWS V14.01,2013-07-06 13:33:00,
2013-07-06 08:35:00,71.1,66.7,29.91,SE,128,1.0,3.0,86,0.00,,BKN009,0.00,93.00,VWS V14.01,2013-07-06 13:35:00,
2013-07-06 08:38:00,71.4,67.3,29.91,East,98,6.0,6.0,87,0.00,,CLR,0.00,246.00,VWS V14.01,2013-07-06 13:38:00,
2013-07-06 08:40:00,71.6,66.5,29.91,SW,225,0.0,6.0,84,0.00,,BKN009,0.00,408.00,VWS V14.01,2013-07-06 13:40:00,
2013-07-06 08:43:00,71.9,66.8,29.91,SSE,166,1.0,3.0,84,0.00,,CLR,0.00,417.00,VWS V14.01,2013-07-06 13:43:00,
2013-07-06 08:45:00,72.2,67.4,29.91,SSE,154,0.0,3.0,85,0.00,,BKN009,0.00,427.00,VWS V14.01,2013-07-06 13:45:00,
2013-07-06 08:48:00,72.6,67.2,29.91,SE,139,1.0,3.0,83,0.00,,CLR,0.00,452.00,VWS V14.01,2013-07-06 13:48:00,
2013-07-06 08:50:00,72.7,66.9,29.91,East,101,0.0,3.0,82,0.00,,BKN009,0.00,468.00,VWS V14.01,2013-07-06 13:50:00,
2013-07-06 08:53:00,73.0,66.8,29.91,SE,130,0.0,2.0,81,0.00,,CLR,0.00,494.00,VWS V14.01,2013-07-06 13:53:00,
2013-07-06 08:55:00,73.3,67.1,29.91,SE,138,1.0,2.0,81,0.00,,BKN009,0.00,499.00,VWS V14.01,2013-07-06 13:55:00,
2013-07-06 08:58:00,73.7,67.2,29.91,ESE,103,0.0,4.0,80,0.00,,CLR,0.00,506.00,VWS V14.01,2013-07-06 13:58:00,
2013-07-06 09:00:00,73.9,67.0,29.90,SSW,209,2.0,4.0,79,0.00,,BKN009,0.00,506.00,VWS V14.01,2013-07-06 14:00:00,
2013-07-06 09:03:00,74.1,67.2,29.90,WSW,252,0.0,3.0,79,0.00,,CLR,0.00,508.00,VWS V14.01,2013-07-06 14:03:00,
2013-07-06 09:05:00,74.2,67.3,29.90,SW,217,1.0,3.0,79,0.00,,BKN009,0.00,512.00,VWS V14.01,2013-07-06 14:05:00,
2013-07-06 09:08:00,74.4,66.7,29.90,East,96,1.0,3.0,77,0.00,,CLR,0.00,513.00,VWS V14.01,2013-07-06 14:08:00,
2013-07-06 09:10:00,74.4,67.5,29.90,ESE,112,0.0,3.0,79,0.00,,BKN009,0.00,524.00,VWS V14.01,2013-07-06 14:10:00,
2013-07-06 09:13:00,74.4,67.1,29.90,WNW,284,1.0,2.0,78,0.00,,CLR,0.00,531.00,VWS V14.01,2013-07-06 14:13:00,
2013-07-06 09:15:00,74.6,66.5,29.90,WNW,285,0.0,2.0,76,0.00,,BKN009,0.00,548.00,VWS V14.01,2013-07-06 14:15:00,
2013-07-06 09:18:00,75.0,67.3,29.90,SSW,213,2.0,2.0,77,0.00,,CLR,0.00,561.00,VWS V14.01,2013-07-06 14:18:00,
2013-07-06 09:20:00,75.2,67.1,29.90,SSW,201,2.0,3.0,76,0.00,,BKN009,0.00,563.00,VWS V14.01,2013-07-06 14:20:00,
2013-07-06 09:23:00,75.6,68.3,29.90,South,188,0.0,2.0,78,0.00,,CLR,0.00,571.00,VWS V14.01,2013-07-06 14:23:00,
2013-07-06 09:25:00,75.8,68.1,29.90,SSW,209,1.0,2.0,77,0.00,,BKN009,0.00,584.00,VWS V14.01,2013-07-06 14:25:00,
2013-07-06 09:28:00,76.1,67.2,29.90,WSW,242,0.0,3.0,74,0.00,,CLR,0.00,615.00,VWS V14.01,2013-07-06 14:28:00,
2013-07-06 09:30:00,76.3,67.4,29.90,WSW,242,1.0,3.0,74,0.00,,BKN009,0.00,636.00,VWS V14.01,2013-07-06 14:30:00,
2013-07-06 09:33:00,76.4,68.3,29.90,South,182,0.0,1.0,76,0.00,,CLR,0.00,603.00,VWS V14.01,2013-07-06 14:33:00,
2013-07-06 09:35:00,76.7,67.4,29.90,South,180,0.0,2.0,73,0.00,,BKN009,0.00,446.00,VWS V14.01,2013-07-06 14:35:00,
2013-07-06 09:38:00,76.6,67.7,29.90,WSW,257,0.0,3.0,74,0.00,,CLR,0.00,357.00,VWS V14.01,2013-07-06 14:38:00,
2013-07-06 09:40:00,76.6,68.1,29.90,WSW,257,0.0,3.0,75,0.00,,BKN009,0.00,782.00,VWS V14.01,2013-07-06 14:40:00,
2013-07-06 09:43:00,77.0,68.1,29.90,WSW,257,0.0,1.0,74,0.00,,CLR,0.00,722.00,VWS V14.01,2013-07-06 14:43:00,
2013-07-06 09:45:00,77.3,67.6,29.90,WSW,257,1.0,2.0,72,0.00,,BKN009,0.00,680.00,VWS V14.01,2013-07-06 14:45:00,
2013-07-06 09:49:00,77.4,66.0,29.90,WSW,255,0.0,4.0,68,0.00,,CLR,0.00,628.00,VWS V14.01,2013-07-06 14:49:00,
2013-07-06 09:50:00,77.4,67.3,29.90,WSW,255,0.0,4.0,71,0.00,,BKN009,0.00,628.00,VWS V14.01,2013-07-06 14:50:00,
2013-07-06 09:54:00,77.3,66.8,29.90,SW,214,0.0,5.0,70,0.00,,CLR,0.00,647.00,VWS V14.01,2013-07-06 14:54:00,
2013-07-06 09:55:00,77.4,66.4,29.90,SSW,194,0.0,5.0,69,0.00,,BKN009,0.00,635.00,VWS V14.01,2013-07-06 14:55:00,
2013-07-06 09:59:00,77.9,66.9,29.90,ESE,110,1.0,3.0,69,0.00,,CLR,0.00,640.00,VWS V14.01,2013-07-06 14:59:00,
2013-07-06 10:00:00,77.9,68.2,29.90,WNW,294,0.0,3.0,72,0.00,,BKN009,0.00,643.00,VWS V14.01,2013-07-06 15:00:00,
2013-07-06 10:04:00,78.3,66.9,29.90,SSE,166,0.0,3.0,68,0.00,,CLR,0.00,656.00,VWS V14.01,2013-07-06 15:04:00,
2013-07-06 10:05:00,78.4,66.6,29.90,WSW,242,2.0,4.0,67,0.00,,BKN009,0.00,659.00,VWS V14.01,2013-07-06 15:05:00,
2013-07-06 10:09:00,78.6,68.0,29.90,WSW,247,1.0,2.0,70,0.00,,CLR,0.00,663.00,VWS V14.01,2013-07-06 15:09:00,
2013-07-06 10:10:00,78.7,68.5,29.90,ESE,112,2.0,2.0,71,0.00,,BKN009,0.00,664.00,VWS V14.01,2013-07-06 15:10:00,
2013-07-06 10:14:00,78.7,66.8,29.90,ESE,123,1.0,2.0,67,0.00,,CLR,0.00,671.00,VWS V14.01,2013-07-06 15:14:00,
2013-07-06 10:15:00,78.8,66.5,29.90,SSE,158,0.0,5.0,66,0.00,,BKN009,0.00,671.00,VWS V14.01,2013-07-06 15:15:00,
2013-07-06 10:19:00,78.8,67.4,29.90,SW,214,0.0,3.0,68,0.00,,CLR,0.00,689.00,VWS V14.01,2013-07-06 15:19:00,
2013-07-06 10:20:00,78.8,66.5,29.90,WNW,282,1.0,3.0,66,0.00,,BKN009,0.00,693.00,VWS V14.01,2013-07-06 15:20:00,
2013-07-06 10:24:00,78.7,66.4,29.90,West,267,0.0,3.0,66,0.00,,CLR,0.00,698.00,VWS V14.01,2013-07-06 15:24:00,
2013-07-06 10:25:00,78.9,67.4,29.90,West,267,2.0,3.0,68,0.00,,BKN009,0.00,696.00,VWS V14.01,2013-07-06 15:25:00,
2013-07-06 10:29:00,79.2,67.7,29.90,WSW,252,0.0,5.0,68,0.00,,CLR,0.00,715.00,VWS V14.01,2013-07-06 15:29:00,
2013-07-06 10:30:00,79.4,67.5,29.90,WSW,252,0.0,5.0,67,0.00,,BKN009,0.00,719.00,VWS V14.01,2013-07-06 15:30:00,
2013-07-06 10:34:00,79.7,67.3,29.90,SSW,207,1.0,2.0,66,0.00,,CLR,0.00,717.00,VWS V14.01,2013-07-06 15:34:00,
2013-07-06 10:35:00,79.7,66.0,29.90,East,97,0.0,3.0,63,0.00,,BKN009,0.00,726.00,VWS V14.01,2013-07-06 15:35:00,
2013-07-06 10:39:00,79.7,66.0,29.90,WSW,248,2.0,4.0,63,0.00,,CLR,0.00,737.00,VWS V14.01,2013-07-06 15:39:00,
2013-07-06 10:40:00,79.7,66.0,29.90,West,261,1.0,4.0,63,0.00,,BKN009,0.00,738.00,VWS V14.01,2013-07-06 15:40:00,
2013-07-06 10:44:00,79.6,65.9,29.90,West,273,1.0,3.0,63,0.00,,CLR,0.00,754.00,VWS V14.01,2013-07-06 15:44:00,
2013-07-06 10:45:00,79.8,67.0,29.90,WSW,256,1.0,3.0,65,0.00,,BKN009,0.00,754.00,VWS V14.01,2013-07-06 15:45:00,
2013-07-06 10:49:00,80.1,67.3,29.90,SSW,213,0.0,2.0,65,0.00,,CLR,0.00,761.00,VWS V14.01,2013-07-06 15:49:00,
2013-07-06 10:50:00,80.3,67.9,29.90,SW,233,3.0,3.0,66,0.00,,BKN009,0.00,766.00,VWS V14.01,2013-07-06 15:50:00,
2013-07-06 10:54:00,80.5,65.8,29.90,ESE,109,0.0,5.0,61,0.00,,CLR,0.00,772.00,VWS V14.01,2013-07-06 15:54:00,
2013-07-06 10:55:00,80.6,66.8,29.90,WNW,291,2.0,5.0,63,0.00,,BKN009,0.00,772.00,VWS V14.01,2013-07-06 15:55:00,
2013-07-06 10:59:00,80.9,65.2,29.90,SSW,204,0.0,2.0,59,0.00,,CLR,0.00,779.00,VWS V14.01,2013-07-06 15:59:00,
2013-07-06 11:00:00,81.0,65.8,29.90,SSW,204,0.0,2.0,60,0.00,,BKN009,0.00,780.00,VWS V14.01,2013-07-06 16:00:00,
2013-07-06 11:04:00,81.2,65.5,29.90,West,268,2.0,4.0,59,0.00,,CLR,0.00,791.00,VWS V14.01,2013-07-06 16:04:00,
2013-07-06 11:05:00,81.1,66.4,29.90,West,269,3.0,4.0,61,0.00,,BKN009,0.00,793.00,VWS V14.01,2013-07-06 16:05:00,
2013-07-06 11:09:00,81.0,67.2,29.90,West,261,3.0,4.0,63,0.00,,CLR,0.00,803.00,VWS V14.01,2013-07-06 16:09:00,
2013-07-06 11:10:00,81.1,67.3,29.90,West,280,0.0,4.0,63,0.00,,BKN009,0.00,803.00,VWS V14.01,2013-07-06 16:10:00,
2013-07-06 11:14:00,81.2,65.5,29.89,East,101,1.0,4.0,59,0.00,,CLR,0.00,809.00,VWS V14.01,2013-07-06 16:14:00,
2013-07-06 11:15:00,81.2,65.5,29.89,East,101,0.0,4.0,59,0.00,,BKN009,0.00,810.00,VWS V14.01,2013-07-06 16:15:00,
2013-07-06 11:20:00,81.7,66.5,29.89,WSW,254,3.0,3.0,60,0.00,,CLR,0.00,821.00,VWS V14.01,2013-07-06 16:20:00,
2013-07-06 11:25:00,82.2,67.4,29.89,West,269,2.0,2.0,61,0.00,,CLR,0.00,826.00,VWS V14.01,2013-07-06 16:25:00,
2013-07-06 11:30:00,82.2,67.4,29.89,West,261,0.0,4.0,61,0.00,,BKN009,0.00,833.00,VWS V14.01,2013-07-06 16:30:00,
2013-07-06 11:31:00,82.2,66.5,29.89,West,261,1.0,1.0,59,0.00,,CLR,0.00,833.00,VWS V14.01,2013-07-06 16:31:00,
2013-07-06 11:35:00,82.3,66.1,29.89,West,259,0.0,5.0,58,0.00,,BKN009,0.00,838.00,VWS V14.01,2013-07-06 16:35:00,
2013-07-06 11:37:00,82.5,67.2,29.89,West,259,0.0,2.0,60,0.00,,CLR,0.00,840.00,VWS V14.01,2013-07-06 16:37:00,
2013-07-06 11:40:00,82.8,66.5,29.89,NW,306,0.0,6.0,58,0.00,,BKN009,0.00,847.00,VWS V14.01,2013-07-06 16:40:00,
2013-07-06 11:42:00,82.9,65.6,29.89,WNW,284,0.0,3.0,56,0.00,,CLR,0.00,861.00,VWS V14.01,2013-07-06 16:42:00,
2013-07-06 11:45:00,83.0,66.2,29.89,WNW,284,0.0,3.0,57,0.00,,BKN009,0.00,898.00,VWS V14.01,2013-07-06 16:45:00,
2013-07-06 11:48:00,83.1,67.3,29.89,WNW,284,2.0,2.0,59,0.00,,CLR,0.00,911.00,VWS V14.01,2013-07-06 16:48:00,
2013-07-06 11:50:00,83.2,67.4,29.89,South,182,0.0,3.0,59,0.00,,BKN009,0.00,958.00,VWS V14.01,2013-07-06 16:50:00,
2013-07-06 11:54:00,83.2,64.8,29.89,ESE,117,1.0,4.0,54,0.00,,CLR,0.00,986.00,VWS V14.01,2013-07-06 16:54:00,
2013-07-06 11:55:00,83.1,64.2,29.89,ESE,117,0.0,4.0,53,0.00,,BKN009,0.00,986.00,VWS V14.01,2013-07-06 16:55:00,
2013-07-06 12:00:00,83.3,66.0,29.89,West,266,0.0,5.0,56,0.00,,CLR,0.00,935.00,VWS V14.01,2013-07-06 17:00:00,
2013-07-06 12:05:00,84.1,66.7,29.89,SW,222,0.0,2.0,56,0.00,,SCT120,0.00,932.00,VWS V14.01,2013-07-06 17:05:00,
2013-07-06 12:10:00,84.2,63.6,29.89,ENE,67,0.0,2.0,50,0.00,,BKN009,0.00,960.00,VWS V14.01,2013-07-06 17:10:00,
2013-07-06 12:11:00,84.2,63.6,29.89,ENE,67,0.0,0.0,50,0.00,,SCT120,0.00,963.00,VWS V14.01,2013-07-06 17:11:00,
2013-07-06 12:15:00,84.3,61.9,29.88,ENE,62,0.0,2.0,47,0.00,,BKN009,0.00,860.00,VWS V14.01,2013-07-06 17:15:00,
2013-07-06 12:16:00,84.4,64.9,29.88,ENE,62,0.0,1.0,52,0.00,,SCT120,0.00,988.00,VWS V14.01,2013-07-06 17:16:00,
2013-07-06 12:20:00,84.5,65.5,29.88,NNW,329,0.0,3.0,53,0.00,,BKN009,0.00,1063.00,VWS V14.01,2013-07-06 17:20:00,
2013-07-06 12:22:00,84.7,65.7,29.88,NNW,329,0.0,1.0,53,0.00,,SCT120,0.00,1025.00,VWS V14.01,2013-07-06 17:22:00,
2013-07-06 12:25:00,85.0,63.7,29.88,West,259,0.0,3.0,49,0.00,,BKN009,0.00,1127.00,VWS V14.01,2013-07-06 17:25:00,
2013-07-06 12:28:00,84.4,60.1,29.88,WSW,252,1.0,3.0,44,0.00,,SCT120,0.00,1127.00,VWS V14.01,2013-07-06 17:28:00,
2013-07-06 12:30:00,84.2,58.6,29.88,West,264,1.0,3.0,42,0.00,,BKN009,0.00,947.00,VWS V14.01,2013-07-06 17:30:00,
2013-07-06 12:33:00,84.5,62.1,29.88,SSE,153,0.0,3.0,47,0.00,,SCT120,0.00,930.00,VWS V14.01,2013-07-06 17:33:00,
2013-07-06 12:35:00,84.8,60.5,29.88,SSE,153,0.0,3.0,44,0.00,,BKN009,0.00,932.00,VWS V14.01,2013-07-06 17:35:00,
2013-07-06 12:40:00,85.2,62.7,29.88,SSE,150,0.0,3.0,47,0.00,,SCT120,0.00,932.00,VWS V14.01,2013-07-06 17:40:00,
2013-07-06 12:45:00,85.3,63.4,29.87,SW,235,0.0,2.0,48,0.00,,SCT120,0.00,928.00,VWS V14.01,2013-07-06 17:45:00,
2013-07-06 12:50:00,85.2,62.1,29.87,SW,235,0.0,2.0,46,0.00,,SCT120,0.00,902.00,VWS V14.01,2013-07-06 17:50:00,
2013-07-06 12:55:00,85.3,60.3,29.87,East,99,0.0,2.0,43,0.00,,BKN009,0.00,963.00,VWS V14.01,2013-07-06 17:55:00,
2013-07-06 12:57:00,85.4,64.7,29.87,East,99,0.0,1.0,50,0.00,,SCT120,0.00,960.00,VWS V14.01,2013-07-06 17:57:00,
2013-07-06 13:00:00,85.6,64.3,29.87,SW,217,0.0,3.0,49,0.00,,BKN009,0.00,995.00,VWS V14.01,2013-07-06 18:00:00,
2013-07-06 13:02:00,85.7,66.1,29.87,SW,217,1.0,1.0,52,0.00,,FEW120,0.00,921.00,VWS V14.01,2013-07-06 18:02:00,
2013-07-06 13:05:00,85.2,64.5,29.87,SW,217,0.0,1.0,50,0.00,,BKN009,0.00,552.00,VWS V14.01,2013-07-06 18:05:00,
2013-07-06 13:08:00,84.9,63.6,29.87,SW,225,2.0,3.0,49,0.00,,FEW120,0.00,1035.00,VWS V14.01,2013-07-06 18:08:00,
2013-07-06 13:10:00,85.0,61.3,29.87,SW,225,0.0,3.0,45,0.00,,BKN009,0.00,965.00,VWS V14.01,2013-07-06 18:10:00,
2013-07-06 13:14:00,85.6,63.7,29.87,SW,221,0.0,3.0,48,0.00,,FEW120,0.00,933.00,VWS V14.01,2013-07-06 18:14:00,
2013-07-06 13:15:00,85.7,65.5,29.87,SSE,166,0.0,3.0,51,0.00,,BKN009,0.00,928.00,VWS V14.01,2013-07-06 18:15:00,
2013-07-06 13:19:00,85.8,62.7,29.87,SSE,155,2.0,3.0,46,0.00,,FEW120,0.00,932.00,VWS V14.01,2013-07-06 18:19:00,
2013-07-06 13:20:00,85.8,62.7,29.87,SE,131,0.0,3.0,46,0.00,,BKN009,0.00,933.00,VWS V14.01,2013-07-06 18:20:00,
2013-07-06 13:24:00,85.8,63.3,29.87,West,271,0.0,3.0,47,0.00,,FEW120,0.00,932.00,VWS V14.01,2013-07-06 18:24:00,
2013-07-06 13:25:00,85.8,65.0,29.87,West,271,1.0,3.0,50,0.00,,BKN009,0.00,932.00,VWS V14.01,2013-07-06 18:25:00,
2013-07-06 13:29:00,86.4,63.8,29.85,SE,126,0.0,5.0,47,0.00,,FEW120,0.00,919.00,VWS V14.01,2013-07-06 18:29:00,
2013-07-06 13:30:00,86.5,63.9,29.85,SE,126,0.0,5.0,47,0.00,,BKN009,0.00,919.00,VWS V14.01,2013-07-06 18:30:00,
2013-07-06 13:35:00,86.2,60.4,29.85,ESE,122,0.0,5.0,42,0.00,,FEW120,0.00,914.00,VWS V14.01,2013-07-06 18:35:00,
2013-07-06 13:40:00,86.0,62.8,29.85,SSE,161,0.0,3.0,46,0.00,,FEW120,0.00,921.00,VWS V14.01,2013-07-06 18:40:00,
2013-07-06 13:45:00,86.3,62.5,29.85,East,101,1.0,5.0,45,0.00,,FEW120,0.00,916.00,VWS V14.01,2013-07-06 18:45:00,
2013-07-06 13:50:00,86.2,64.2,29.85,SW,228,0.0,0.0,48,0.00,,FEW120,0.00,905.00,VWS V14.01,2013-07-06 18:50:00,
2013-07-06 13:55:00,86.3,63.1,29.85,East,101,1.0,5.0,46,0.00,,BKN009,0.00,907.00,VWS V14.01,2013-07-06 18:55:00,
2013-07-06 13:56:00,86.3,61.2,29.85,East,101,2.0,3.0,43,0.00,,FEW120,0.00,905.00,VWS V14.01,2013-07-06 18:56:00,
2013-07-06 14:00:00,86.3,60.5,29.84,East,101,0.0,3.0,42,0.00,,BKN009,0.00,900.00,VWS V14.01,2013-07-06 19:00:00,
2013-07-06 14:02:00,86.4,61.9,29.84,East,101,0.0,1.0,44,0.00,,FEW055,0.00,900.00,VWS V14.01,2013-07-06 19:02:00,
2013-07-06 14:05:00,86.4,63.2,29.84,NW,319,1.0,3.0,46,0.00,,BKN009,0.00,898.00,VWS V14.01,2013-07-06 19:05:00,
2013-07-06 14:07:00,86.6,64.6,29.84,NW,319,2.0,2.0,48,0.00,,FEW055,0.00,902.00,VWS V14.01,2013-07-06 19:07:00,
2013-07-06 14:10:00,86.7,61.5,29.84,West,267,3.0,5.0,43,0.00,,BKN009,0.00,895.00,VWS V14.01,2013-07-06 19:10:00,
2013-07-06 14:13:00,86.5,62.7,29.84,West,271,0.0,3.0,45,0.00,,FEW055,0.00,886.00,VWS V14.01,2013-07-06 19:13:00,
2013-07-06 14:15:00,86.6,63.4,29.84,West,263,1.0,3.0,46,0.00,,BKN009,0.00,886.00,VWS V14.01,2013-07-06 19:15:00,
2013-07-06 14:20:00,86.9,64.9,29.84,WSW,256,1.0,4.0,48,0.00,,FEW055,0.00,881.00,VWS V14.01,2013-07-06 19:20:00,
2013-07-06 14:25:00,87.0,65.0,29.84,East,80,1.0,1.0,48,0.00,,FEW055,0.00,874.00,VWS V14.01,2013-07-06 19:25:00,
2013-07-06 14:30:00,87.2,64.5,29.83,East,90,1.0,2.0,47,0.00,,BKN009,0.00,874.00,VWS V14.01,2013-07-06 19:30:00,
2013-07-06 14:32:00,87.4,67.6,29.83,East,91,0.0,1.0,52,0.00,,FEW055,0.00,872.00,VWS V14.01,2013-07-06 19:32:00,
2013-07-06 14:35:00,87.5,61.6,29.83,NE,53,0.0,1.0,42,0.00,,BKN009,0.00,872.00,VWS V14.01,2013-07-06 19:35:00,
2013-07-06 14:40:00,87.3,62.7,29.83,NE,53,0.0,2.0,44,0.00,,FEW055,0.00,858.00,VWS V14.01,2013-07-06 19:40:00,
2013-07-06 14:45:00,87.7,61.1,29.83,South,180,0.0,3.0,41,0.00,,FEW055,0.00,861.00,VWS V14.01,2013-07-06 19:45:00,
2013-07-06 14:50:00,87.6,63.7,29.83,WSW,257,0.0,4.0,45,0.00,,FEW055,0.00,853.00,VWS V14.01,2013-07-06 19:50:00,
2013-07-06 14:55:00,87.4,65.3,29.83,West,266,2.0,8.0,48,0.00,,FEW055,0.00,854.00,VWS V14.01,2013-07-06 19:55:00,
2013-07-06 15:00:00,87.7,67.3,29.83,NE,54,0.0,5.0,51,0.00,,FEW055,0.00,861.00,VWS V14.01,2013-07-06 20:00:00,
2013-07-06 15:05:00,87.9,65.8,29.83,ENE,62,1.0,2.0,48,0.00,,CLR,0.00,237.00,VWS V14.01,2013-07-06 20:05:00,
2013-07-06 15:10:00,86.5,64.5,29.83,ENE,62,1.0,2.0,48,0.00,,BKN009,0.00,837.00,VWS V14.01,2013-07-06 20:10:00,
2013-07-06 15:11:00,86.6,62.8,29.83,ENE,62,0.0,1.0,45,0.00,,CLR,0.00,837.00,VWS V14.01,2013-07-06 20:11:00,
2013-07-06 15:15:00,87.4,64.7,29.83,SSW,198,1.0,3.0,47,0.00,,BKN009,0.00,867.00,VWS V14.01,2013-07-06 20:15:00,
2013-07-06 15:17:00,87.5,62.3,29.83,SSW,198,0.0,1.0,43,0.00,,CLR,0.00,861.00,VWS V14.01,2013-07-06 20:17:00,
2013-07-06 15:20:00,87.8,64.5,29.83,SSW,198,0.0,1.0,46,0.00,,BKN009,0.00,863.00,VWS V14.01,2013-07-06 20:20:00,
2013-07-06 15:23:00,88.1,64.1,29.83,NW,306,1.0,4.0,45,0.00,,CLR,0.00,847.00,VWS V14.01,2013-07-06 20:23:00,
2013-07-06 15:25:00,87.9,63.3,29.83,West,273,2.0,4.0,44,0.00,,BKN009,0.00,830.00,VWS V14.01,2013-07-06 20:25:00,
2013-07-06 15:29:00,87.8,65.1,29.83,West,273,0.0,2.0,47,0.00,,CLR,0.00,838.00,VWS V14.01,2013-07-06 20:29:00,
2013-07-06 15:30:00,87.9,62.0,29.82,West,273,0.0,2.0,42,0.00,,BKN009,0.00,838.00,VWS V14.01,2013-07-06 20:30:00,
2013-07-06 15:35:00,88.0,63.4,29.82,SE,134,0.0,0.0,44,0.00,,CLR,0.00,810.00,VWS V14.01,2013-07-06 20:35:00,
2013-07-06 15:40:00,88.5,65.1,29.82,ESE,111,0.0,2.0,46,0.00,,CLR,0.00,761.00,VWS V14.01,2013-07-06 20:40:00,
2013-07-06 15:45:00,87.4,61.5,29.82,ESE,103,0.0,3.0,42,0.00,,BKN009,0.00,285.00,VWS V14.01,2013-07-06 20:45:00,
2013-07-06 15:46:00,87.3,61.4,29.82,ESE,103,0.0,0.0,42,0.00,,CLR,0.00,285.00,VWS V14.01,2013-07-06 20:46:00,
2013-07-06 15:50:00,86.0,66.3,29.82,ESE,103,0.0,1.0,52,0.00,,BKN009,0.00,230.00,VWS V14.01,2013-07-06 20:50:00,
2013-07-06 15:51:00,86.0,65.8,29.82,ESE,103,0.0,0.0,51,0.00,,CLR,0.00,230.00,VWS V14.01,2013-07-06 20:51:00,
2013-07-06 15:55:00,87.2,67.4,29.82,ESE,103,0.0,2.0,52,0.00,,BKN009,0.00,756.00,VWS V14.01,2013-07-06 20:55:00,
2013-07-06 15:58:00,87.7,66.2,29.82,East,82,1.0,2.0,49,0.00,,CLR,0.00,737.00,VWS V14.01,2013-07-06 20:58:00,
2013-07-06 16:00:00,87.9,63.9,29.82,SE,124,0.0,2.0,45,0.00,,BKN009,0.00,728.00,VWS V14.01,2013-07-06 21:00:00,
2013-07-06 16:04:00,88.0,63.4,29.82,West,268,0.0,4.0,44,0.00,,CLR,0.00,728.00,VWS V14.01,2013-07-06 21:04:00,
2013-07-06 16:05:00,87.7,62.5,29.82,West,268,0.0,4.0,43,0.00,,BKN009,0.00,628.00,VWS V14.01,2013-07-06 21:05:00,
2013-07-06 16:10:00,87.7,63.8,29.82,West,269,1.0,2.0,45,0.00,,CLR,0.00,700.00,VWS V14.01,2013-07-06 21:10:00,
2013-07-06 16:15:00,88.0,64.0,29.82,SSE,155,0.0,3.0,45,0.00,,CLR,0.00,563.00,VWS V14.01,2013-07-06 21:15:00,
2013-07-06 16:20:00,86.8,65.4,29.82,SSE,155,1.0,1.0,49,0.00,,CLR,0.00,267.00,VWS V14.01,2013-07-06 21:20:00,
2013-07-06 16:25:00,86.3,61.8,29.82,East,96,1.0,3.0,44,0.00,,BKN009,0.00,388.00,VWS V14.01,2013-07-06 21:25:00,
2013-07-06 16:26:00,86.3,63.1,29.82,East,96,1.0,3.0,46,0.00,,CLR,0.00,388.00,VWS V14.01,2013-07-06 21:26:00,
2013-07-06 16:30:00,87.2,62.0,29.82,NNE,31,0.0,3.0,43,0.00,,BKN009,0.00,765.00,VWS V14.01,2013-07-06 21:30:00,
2013-07-06 16:31:00,87.5,63.6,29.82,WNW,291,0.0,3.0,45,0.00,,CLR,0.00,756.00,VWS V14.01,2013-07-06 21:31:00,
2013-07-06 16:35:00,87.8,68.0,29.82,East,87,1.0,3.0,52,0.00,,BKN009,0.00,705.00,VWS V14.01,2013-07-06 21:35:00,
2013-07-06 16:37:00,88.0,62.0,29.82,South,185,0.0,2.0,42,0.00,,CLR,0.00,693.00,VWS V14.01,2013-07-06 21:37:00,
2013-07-06 16:40:00,88.1,64.7,29.82,ESE,106,1.0,3.0,46,0.00,,BKN009,0.00,656.00,VWS V14.01,2013-07-06 21:40:00,
2013-07-06 16:43:00,88.2,64.2,29.82,ESE,123,1.0,3.0,45,0.00,,CLR,0.00,619.00,VWS V14.01,2013-07-06 21:43:00,
2013-07-06 16:45:00,88.2,65.4,29.81,SSW,211,2.0,3.0,47,0.00,,BKN009,0.00,642.00,VWS V14.01,2013-07-06 21:45:00,
2013-07-06 16:49:00,88.3,64.3,29.81,SE,128,0.0,3.0,45,0.00,,CLR,0.00,573.00,VWS V14.01,2013-07-06 21:49:00,
2013-07-06 16:50:00,88.2,66.1,29.81,SSW,208,0.0,3.0,48,0.00,,BKN009,0.00,605.00,VWS V14.01,2013-07-06 21:50:00,
2013-07-06 16:55:00,88.4,65.6,29.81,SSW,208,0.0,1.0,47,0.00,,BKN009,0.00,640.00,VWS V14.01,2013-07-06 21:55:00,
2013-07-06 16:57:00,88.4,66.2,29.81,SSW,207,0.0,1.0,48,0.00,,CLR,0.00,640.00,VWS V14.01,2013-07-06 21:57:00,
2013-07-06 17:00:00,88.7,64.0,29.81,North,9,1.0,2.0,44,0.00,,BKN009,0.00,731.00,VWS V14.01,2013-07-06 22:00:00,
2013-07-06 17:02:00,88.8,64.7,29.81,NE,42,0.0,1.0,45,0.00,,CLR,0.00,708.00,VWS V14.01,2013-07-06 22:02:00,
2013-07-06 17:05:00,89.0,64.3,29.81,East,101,0.0,6.0,44,0.00,,BKN009,0.00,633.00,VWS V14.01,2013-07-06 22:05:00,
2013-07-06 17:10:00,88.7,64.0,29.81,SSE,148,0.0,4.0,44,0.00,,CLR,0.00,605.00,VWS V14.01,2013-07-06 22:10:00,
2013-07-06 17:15:00,88.1,62.1,29.81,East,94,0.0,6.0,42,0.00,,CLR,0.00,223.00,VWS V14.01,2013-07-06 22:15:00,
2013-07-06 17:20:00,87.7,63.7,29.81,NW,320,0.0,2.0,45,0.00,,BKN009,0.00,504.00,VWS V14.01,2013-07-06 22:20:00,
2013-07-06 17:22:00,87.6,62.4,29.81,SSE,164,0.0,4.0,43,0.00,,CLR,0.00,209.00,VWS V14.01,2013-07-06 22:22:00,
2013-07-06 17:25:00,87.0,62.5,29.81,ESE,113,0.0,4.0,44,0.00,,BKN009,0.00,209.00,VWS V14.01,2013-07-06 22:25:00,
2013-07-06 17:29:00,87.3,65.2,29.81,ESE,113,0.0,1.0,48,0.00,,CLR,0.00,522.00,VWS V14.01,2013-07-06 22:29:00,
2013-07-06 17:30:00,87.4,64.1,29.80,ESE,113,0.0,1.0,46,0.00,,BKN009,0.00,506.00,VWS V14.01,2013-07-06 22:30:00,
2013-07-06 17:34:00,87.7,64.4,29.80,WSW,245,3.0,3.0,46,0.00,,CLR,0.00,466.00,VWS V14.01,2013-07-06 22:34:00,
2013-07-06 17:35:00,87.7,67.9,29.80,SW,229,0.0,3.0,52,0.00,,BKN009,0.00,464.00,VWS V14.01,2013-07-06 22:35:00,
2013-07-06 17:39:00,87.5,62.3,29.80,SE,128,0.0,5.0,43,0.00,,CLR,0.00,443.00,VWS V14.01,2013-07-06 22:39:00,
2013-07-06 17:40:00,87.4,65.9,29.80,East,93,2.0,5.0,49,0.00,,BKN009,0.00,438.00,VWS V14.01,2013-07-06 22:40:00,
2013-07-06 17:44:00,87.3,63.4,29.80,ESE,103,2.0,4.0,45,0.00,,CLR,0.00,427.00,VWS V14.01,2013-07-06 22:44:00,
2013-07-06 17:45:00,87.3,64.6,29.80,East,101,0.0,4.0,47,0.00,,BKN009,0.00,415.00,VWS V14.01,2013-07-06 22:45:00,
2013-07-06 17:50:00,87.1,65.1,29.80,ESE,117,0.0,3.0,48,0.00,,BKN009,0.00,403.00,VWS V14.01,2013-07-06 22:50:00,
2013-07-06 17:51:00,87.2,66.3,29.80,ESE,117,0.0,1.0,50,0.00,,CLR,0.00,401.00,VWS V14.01,2013-07-06 22:51:00,
2013-07-06 17:55:00,87.0,63.1,29.80,East,98,0.0,5.0,45,0.00,,BKN009,0.00,396.00,VWS V14.01,2013-07-06 22:55:00,
2013-07-06 17:58:00,87.1,65.6,29.80,East,91,0.0,2.0,49,0.00,,CLR,0.00,367.00,VWS V14.01,2013-07-06 22:58:00,
2013-07-06 18:00:00,87.0,63.7,29.80,East,95,0.0,2.0,46,0.00,,BKN009,0.00,355.00,VWS V14.01,2013-07-06 23:00:00,
2013-07-06 18:05:00,86.6,63.4,29.80,East,101,0.0,2.0,46,0.00,,CLR,0.00,346.00,VWS V14.01,2013-07-06 23:05:00,
2013-07-06 18:10:00,86.4,67.8,29.80,SE,140,0.0,3.0,54,0.00,,BKN009,0.00,248.00,VWS V14.01,2013-07-06 23:10:00,
2013-07-06 18:15:00,85.7,68.2,29.80,SE,142,0.0,2.0,56,0.00,,CLR,0.00,239.00,VWS V14.01,2013-07-06 23:15:00,
2013-07-06 18:20:00,85.4,66.3,29.80,SE,140,0.0,2.0,53,0.00,,BKN009,0.00,241.00,VWS V14.01,2013-07-06 23:20:00,
2013-07-06 18:21:00,85.4,66.3,29.80,SE,140,0.0,0.0,53,0.00,,CLR,0.00,241.00,VWS V14.01,2013-07-06 23:21:00,
2013-07-06 18:25:00,84.9,64.2,29.80,SE,140,0.0,2.0,50,0.00,,BKN009,0.00,128.00,VWS V14.01,2013-07-06 23:25:00,
2013-07-06 18:26:00,84.9,64.2,29.80,SE,140,0.0,1.0,50,0.00,,CLR,0.00,132.00,VWS V14.01,2013-07-06 23:26:00,
2013-07-06 18:30:00,84.8,65.2,29.81,ESE,107,0.0,2.0,52,0.00,,BKN009,0.00,174.00,VWS V14.01,2013-07-06 23:30:00,
2013-07-06 18:32:00,84.7,64.0,29.81,ESE,107,0.0,0.0,50,0.00,,CLR,0.00,213.00,VWS V14.01,2013-07-06 23:32:00,
2013-07-06 18:35:00,84.3,65.3,29.81,ESE,107,0.0,0.0,53,0.00,,BKN009,0.00,279.00,VWS V14.01,2013-07-06 23:35:00,
2013-07-06 18:39:00,84.3,64.2,29.81,ESE,106,0.0,2.0,51,0.00,,CLR,0.00,279.00,VWS V14.01,2013-07-06 23:39:00,
2013-07-06 18:40:00,84.5,65.5,29.81,ESE,107,0.0,2.0,53,0.00,,BKN009,0.00,271.00,VWS V14.01,2013-07-06 23:40:00,
2013-07-06 18:45:00,85.0,66.0,29.80,ESE,107,0.0,1.0,53,0.00,,BKN009,0.00,258.00,VWS V14.01,2013-07-06 23:45:00,
2013-07-06 18:46:00,85.0,66.5,29.80,ESE,107,0.0,0.0,54,0.00,,CLR,0.00,255.00,VWS V14.01,2013-07-06 23:46:00,
2013-07-06 18:50:00,85.0,66.5,29.80,ESE,107,0.0,1.0,54,0.00,,BKN009,0.00,236.00,VWS V14.01,2013-07-06 23:50:00,
2013-07-06 18:52:00,84.9,66.4,29.80,ESE,107,0.0,0.0,54,0.00,,CLR,0.00,232.00,VWS V14.01,2013-07-06 23:52:00,
2013-07-06 18:55:00,84.7,67.8,29.80,ESE,107,0.0,1.0,57,0.00,,BKN009,0.00,178.00,VWS V14.01,2013-07-06 23:55:00,
2013-07-06 19:00:00,84.3,66.4,29.81,ESE,107,0.0,0.0,55,0.00,,CLR,0.00,125.00,VWS V14.01,2013-07-07 00:00:00,
2013-07-06 19:05:00,83.6,65.7,29.81,ESE,107,0.0,1.0,55,0.00,,BKN110,0.00,123.00,VWS V14.01,2013-07-07 00:05:00,
2013-07-06 19:10:00,83.0,67.2,29.81,ESE,107,0.0,1.0,59,0.00,,BKN009,0.00,104.00,VWS V14.01,2013-07-07 00:10:00,
2013-07-06 19:11:00,82.9,67.1,29.81,ESE,107,0.0,0.0,59,0.00,,BKN110,0.00,100.00,VWS V14.01,2013-07-07 00:11:00,
2013-07-06 19:15:00,82.1,66.4,29.80,ESE,107,0.0,1.0,59,0.00,,BKN009,0.00,72.00,VWS V14.01,2013-07-07 00:15:00,
2013-07-06 19:16:00,82.0,66.3,29.80,ESE,107,0.0,0.0,59,0.00,,BKN110,0.00,69.00,VWS V14.01,2013-07-07 00:16:00,
2013-07-06 19:20:00,82.0,65.3,29.80,ESE,107,0.0,1.0,57,0.00,,BKN009,0.00,62.00,VWS V14.01,2013-07-07 00:20:00,
2013-07-06 19:23:00,82.0,64.8,29.80,ESE,107,0.0,0.0,56,0.00,,BKN110,0.00,60.00,VWS V14.01,2013-07-07 00:23:00,
2013-07-06 19:25:00,81.8,65.1,29.80,ESE,107,0.0,1.0,57,0.00,,BKN009,0.00,67.00,VWS V14.01,2013-07-07 00:25:00,
2013-07-06 19:28:00,81.7,64.5,29.80,ESE,107,0.0,0.0,56,0.00,,BKN110,0.00,74.00,VWS V14.01,2013-07-07 00:28:00,
2013-07-06 19:30:00,81.9,65.2,29.81,ESE,107,0.0,0.0,57,0.00,,BKN009,0.00,70.00,VWS V14.01,2013-07-07 00:30:00,
2013-07-06 19:33:00,81.6,65.9,29.81,ESE,107,0.0,0.0,59,0.00,,BKN110,0.00,69.00,VWS V14.01,2013-07-07 00:33:00,
2013-07-06 19:35:00,81.5,65.3,29.81,ESE,107,0.0,0.0,58,0.00,,BKN009,0.00,69.00,VWS V14.01,2013-07-07 00:35:00,
2013-07-06 19:39:00,81.2,65.5,29.81,ESE,107,1.0,1.0,59,0.00,,BKN110,0.00,72.00,VWS V14.01,2013-07-07 00:39:00,
2013-07-06 19:40:00,81.3,65.6,29.81,ESE,107,0.0,1.0,59,0.00,,BKN009,0.00,70.00,VWS V14.01,2013-07-07 00:40:00,
2013-07-06 19:44:00,81.3,65.6,29.81,ESE,107,0.0,0.0,59,0.00,,BKN110,0.00,63.00,VWS V14.01,2013-07-07 00:44:00,
2013-07-06 19:45:00,81.3,66.1,29.81,ESE,107,0.0,0.0,60,0.00,,BKN009,0.00,60.00,VWS V14.01,2013-07-07 00:45:00,
2013-07-06 19:50:00,81.2,65.5,29.81,ESE,107,0.0,0.0,59,0.00,,BKN110,0.00,44.00,VWS V14.01,2013-07-07 00:50:00,
2013-07-06 19:55:00,81.0,64.8,29.81,ESE,107,0.0,0.0,58,0.00,,BKN110,0.00,39.00,VWS V14.01,2013-07-07 00:55:00,
2013-07-06 20:00:00,80.8,64.7,29.81,ESE,107,0.0,0.0,58,0.00,,BKN009,0.00,28.00,VWS V14.01,2013-07-07 01:00:00,
2013-07-06 20:01:00,80.8,64.2,29.81,ESE,107,0.0,0.0,57,0.00,,BKN110,0.00,26.00,VWS V14.01,2013-07-07 01:01:00,
2013-07-06 20:05:00,80.6,64.0,29.81,ESE,107,0.0,0.0,57,0.00,,BKN009,0.00,21.00,VWS V14.01,2013-07-07 01:05:00,
2013-07-06 20:06:00,80.5,63.9,29.81,ESE,107,0.0,0.0,57,0.00,,BKN110,0.00,18.00,VWS V14.01,2013-07-07 01:06:00,
2013-07-06 20:10:00,80.2,63.6,29.81,ESE,107,0.0,0.0,57,0.00,,BKN009,0.00,12.00,VWS V14.01,2013-07-07 01:10:00,
2013-07-06 20:12:00,80.1,63.5,29.81,ESE,107,0.0,0.0,57,0.00,,BKN110,0.00,9.00,VWS V14.01,2013-07-07 01:12:00,
2013-07-06 20:15:00,80.1,63.5,29.81,ESE,107,0.0,0.0,57,0.00,,BKN009,0.00,7.00,VWS V14.01,2013-07-07 01:15:00,
2013-07-06 20:20:00,79.8,63.7,29.81,ESE,107,0.0,1.0,58,0.00,,BKN110,0.00,5.00,VWS V14.01,2013-07-07 01:20:00,
2013-07-06 20:25:00,79.8,63.2,29.81,ESE,107,0.0,0.0,57,0.00,,BKN110,0.00,0.00,VWS V14.01,2013-07-07 01:25:00,
2013-07-06 20:30:00,79.6,63.0,29.82,ESE,107,0.0,0.0,57,0.00,,BKN009,0.00,0.00,VWS V14.01,2013-07-07 01:30:00,
2013-07-06 20:32:00,79.4,62.9,29.82,ESE,107,0.0,0.0,57,0.00,,BKN110,0.00,0.00,VWS V14.01,2013-07-07 01:32:00,
2013-07-06 20:35:00,79.1,63.6,29.82,ESE,107,0.0,0.0,59,0.00,,BKN009,0.00,0.00,VWS V14.01,2013-07-07 01:35:00,
2013-07-06 20:38:00,78.7,63.2,29.82,ESE,107,0.0,0.0,59,0.00,,BKN110,0.00,0.00,VWS V14.01,2013-07-07 01:38:00,
2013-07-06 20:40:00,78.2,63.7,29.82,ESE,107,0.0,0.0,61,0.00,,BKN009,0.00,0.00,VWS V14.01,2013-07-07 01:40:00,
2013-07-06 20:43:00,77.5,63.5,29.82,ESE,107,0.0,0.0,62,0.00,,BKN110,0.00,0.00,VWS V14.01,2013-07-07 01:43:00,
2013-07-06 20:45:00,76.9,63.8,29.82,ESE,107,0.0,0.0,64,0.00,,BKN009,0.00,0.00,VWS V14.01,2013-07-07 01:45:00,
2013-07-06 20:48:00,76.5,63.9,29.82,ESE,107,0.0,0.0,65,0.00,,BKN110,0.00,0.00,VWS V14.01,2013-07-07 01:48:00,
2013-07-06 20:50:00,76.3,64.6,29.82,ESE,107,0.0,0.0,67,0.00,,BKN009,0.00,0.00,VWS V14.01,2013-07-07 01:50:00,
2013-07-06 20:53:00,76.2,64.9,29.82,ESE,107,0.0,0.0,68,0.00,,BKN110,0.00,0.00,VWS V14.01,2013-07-07 01:53:00,
2013-07-06 20:55:00,76.3,65.0,29.82,ESE,107,0.0,0.0,68,0.00,,BKN009,0.00,0.00,VWS V14.01,2013-07-07 01:55:00,
2013-07-06 21:00:00,76.5,65.6,29.82,ESE,107,0.0,0.0,69,0.00,,BKN110,0.00,0.00,VWS V14.01,2013-07-07 02:00:00,
2013-07-06 21:05:00,76.6,65.3,29.82,ESE,107,0.0,0.0,68,0.00,,CLR,0.00,0.00,VWS V14.01,2013-07-07 02:05:00,
2013-07-06 21:10:00,76.5,64.3,29.82,ESE,107,0.0,0.0,66,0.00,,CLR,0.00,0.00,VWS V14.01,2013-07-07 02:10:00,
2013-07-06 21:15:00,76.4,63.8,29.83,ESE,107,0.0,0.0,65,0.00,,CLR,0.00,0.00,VWS V14.01,2013-07-07 02:15:00,
2013-07-06 21:20:00,76.3,63.7,29.83,ESE,107,0.0,0.0,65,0.00,,BKN009,0.00,0.00,VWS V14.01,2013-07-07 02:20:00,
2013-07-06 21:21:00,76.3,63.2,29.83,ESE,107,0.0,0.0,64,0.00,,CLR,0.00,0.00,VWS V14.01,2013-07-07 02:21:00,
2013-07-06 21:25:00,76.2,63.2,29.83,ESE,107,0.0,1.0,64,0.00,,BKN009,0.00,0.00,VWS V14.01,2013-07-07 02:25:00,
2013-07-06 21:27:00,76.2,62.7,29.83,ESE,107,0.0,0.0,63,0.00,,CLR,0.00,0.00,VWS V14.01,2013-07-07 02:27:00,
2013-07-06 21:30:00,76.2,63.2,29.83,ESE,107,1.0,1.0,64,0.00,,BKN009,0.00,0.00,VWS V14.01,2013-07-07 02:30:00,
2013-07-06 21:34:00,76.3,63.2,29.83,ESE,107,0.0,1.0,64,0.00,,CLR,0.00,0.00,VWS V14.01,2013-07-07 02:34:00,
2013-07-06 21:35:00,76.3,62.8,29.83,ESE,107,0.0,1.0,63,0.00,,BKN009,0.00,0.00,VWS V14.01,2013-07-07 02:35:00,
2013-07-06 21:40:00,76.3,62.3,29.83,ESE,107,0.0,1.0,62,0.00,,CLR,0.00,0.00,VWS V14.01,2013-07-07 02:40:00,
2013-07-06 21:45:00,76.4,62.0,29.84,ESE,107,0.0,1.0,61,0.00,,CLR,0.00,0.00,VWS V14.01,2013-07-07 02:45:00,
2013-07-06 21:50:00,76.4,62.0,29.84,ESE,107,1.0,1.0,61,0.00,,CLR,0.00,0.00,VWS V14.01,2013-07-07 02:50:00,
2013-07-06 21:55:00,76.5,61.6,29.84,ESE,108,0.0,2.0,60,0.00,,BKN009,0.00,0.00,VWS V14.01,2013-07-07 02:55:00,
2013-07-06 21:56:00,76.6,62.2,29.84,ESE,107,0.0,0.0,61,0.00,,CLR,0.00,0.00,VWS V14.01,2013-07-07 02:56:00,
2013-07-06 22:00:00,76.6,61.7,29.85,ESE,108,0.0,1.0,60,0.00,,BKN009,0.00,0.00,VWS V14.01,2013-07-07 03:00:00,
2013-07-06 22:03:00,76.6,61.7,29.85,ESE,108,0.0,0.0,60,0.00,,CLR,0.00,0.00,VWS V14.01,2013-07-07 03:03:00,
2013-07-06 22:05:00,76.6,62.2,29.85,ESE,107,0.0,0.0,61,0.00,,BKN009,0.00,0.00,VWS V14.01,2013-07-07 03:05:00,
2013-07-06 22:09:00,76.6,61.7,29.85,ESE,108,0.0,1.0,60,0.00,,CLR,0.00,0.00,VWS V14.01,2013-07-07 03:09:00,
2013-07-06 22:10:00,76.6,61.7,29.85,ESE,108,0.0,1.0,60,0.00,,BKN009,0.00,0.00,VWS V14.01,2013-07-07 03:10:00,
2013-07-06 22:15:00,76.5,62.1,29.85,ESE,107,0.0,0.0,61,0.00,,CLR,0.00,0.00,VWS V14.01,2013-07-07 03:15:00,
2013-07-06 22:20:00,76.4,62.0,29.85,ESE,108,0.0,2.0,61,0.00,,CLR,0.00,0.00,VWS V14.01,2013-07-07 03:20:00,
2013-07-06 22:25:00,76.4,62.0,29.85,ESE,108,0.0,0.0,61,0.00,,BKN009,0.00,0.00,VWS V14.01,2013-07-07 03:25:00,
2013-07-06 22:26:00,76.4,62.0,29.85,ESE,108,0.0,0.0,61,0.00,,CLR,0.00,0.00,VWS V14.01,2013-07-07 03:26:00,
2013-07-06 22:30:00,76.3,62.3,29.86,ESE,108,0.0,0.0,62,0.00,,BKN009,0.00,0.00,VWS V14.01,2013-07-07 03:30:00,
2013-07-06 22:32:00,76.3,62.3,29.86,ESE,108,0.0,1.0,62,0.00,,CLR,0.00,0.00,VWS V14.01,2013-07-07 03:32:00,
2013-07-06 22:35:00,76.3,62.3,29.86,ESE,108,0.0,1.0,62,0.00,,BKN009,0.00,0.00,VWS V14.01,2013-07-07 03:35:00,
2013-07-06 22:37:00,76.2,62.2,29.86,ESE,108,0.0,0.0,62,0.00,,CLR,0.00,0.00,VWS V14.01,2013-07-07 03:37:00,
2013-07-06 22:40:00,76.2,62.7,29.86,ESE,108,0.0,0.0,63,0.00,,BKN009,0.00,0.00,VWS V14.01,2013-07-07 03:40:00,
2013-07-06 22:42:00,76.2,62.7,29.86,ESE,108,0.0,1.0,63,0.00,,CLR,0.00,0.00,VWS V14.01,2013-07-07 03:42:00,
2013-07-06 22:45:00,76.1,62.2,29.87,ESE,108,0.0,1.0,62,0.00,,BKN009,0.00,0.00,VWS V14.01,2013-07-07 03:45:00,
2013-07-06 22:50:00,76.0,62.5,29.87,ESE,107,2.0,2.0,63,0.00,,CLR,0.00,0.00,VWS V14.01,2013-07-07 03:50:00,
2013-07-06 22:55:00,76.0,63.0,29.87,ESE,107,0.0,1.0,64,0.00,,CLR,0.00,0.00,VWS V14.01,2013-07-07 03:55:00,
2013-07-06 23:00:00,75.9,62.9,29.87,East,96,0.0,3.0,64,0.00,,CLR,0.00,0.00,VWS V14.01,2013-07-07 04:00:00,
2013-07-06 23:01:00,75.9,62.9,29.87,East,96,0.0,1.0,64,0.00,,CLR,0.00,0.00,VWS V14.01,2013-07-07 04:01:00,
2013-07-06 23:02:00,75.9,62.9,29.87,East,96,0.0,1.0,64,0.00,,CLR,0.00,0.00,VWS V14.01,2013-07-07 04:02:00,
2013-07-06 23:03:00,75.9,62.9,29.87,SSE,158,0.0,1.0,64,0.00,,CLR,0.00,0.00,VWS V14.01,2013-07-07 04:03:00,
2013-07-06 23:05:00,75.8,63.2,29.87,SSE,158,0.0,1.0,65,0.00,,CLR,0.00,0.00,VWS V14.01,2013-07-07 04:05:00,
2013-07-06 23:10:00,75.7,63.1,29.87,East,98,0.0,0.0,65,0.00,,CLR,0.00,0.00,VWS V14.01,2013-07-07 04:10:00,
2013-07-06 23:15:00,75.6,63.0,29.86,SE,134,3.0,3.0,65,0.00,,CLR,0.00,0.00,VWS V14.01,2013-07-07 04:15:00,
2013-07-06 23:20:00,75.6,63.5,29.86,SE,134,0.0,0.0,66,0.00,,CLR,0.00,0.00,VWS V14.01,2013-07-07 04:20:00,
2013-07-06 23:25:00,75.5,63.8,29.86,ESE,117,0.0,0.0,67,0.00,,CLR,0.00,0.00,VWS V14.01,2013-07-07 04:25:00,
2013-07-06 23:30:00,75.4,63.7,29.87,ESE,117,0.0,0.0,67,0.00,,CLR,0.00,0.00,VWS V14.01,2013-07-07 04:30:00,
2013-07-06 23:35:00,75.2,63.9,29.87,ESE,117,0.0,0.0,68,0.00,,CLR,0.00,0.00,VWS V14.01,2013-07-07 04:35:00,
2013-07-06 23:40:00,75.1,63.8,29.87,ESE,117,0.0,1.0,68,0.00,,BKN009,0.00,0.00,VWS V14.01,2013-07-07 04:40:00,
2013-07-06 23:41:00,75.1,63.8,29.87,ESE,117,0.0,0.0,68,0.00,,CLR,0.00,0.00,VWS V14.01,2013-07-07 04:41:00,
2013-07-06 23:45:00,75.0,63.7,29.87,ESE,117,0.0,3.0,68,0.00,,BKN009,0.00,0.00,VWS V14.01,2013-07-07 04:45:00,
2013-07-06 23:46:00,74.9,63.6,29.87,ESE,117,0.0,0.0,68,0.00,,CLR,0.00,0.00,VWS V14.01,2013-07-07 04:46:00,
2013-07-06 23:50:00,74.8,64.0,29.87,ESE,117,0.0,0.0,69,0.00,,BKN009,0.00,0.00,VWS V14.01,2013-07-07 04:50:00,
2013-07-06 23:51:00,74.9,64.1,29.87,ESE,117,0.0,0.0,69,0.00,,CLR,0.00,0.00,VWS V14.01,2013-07-07 04:51:00,
2013-07-06 23:55:00,74.7,63.9,29.87,ESE,117,0.0,2.0,69,0.00,,BKN009,0.00,0.00,VWS V14.01,2013-07-07 04:55:00,
2013-07-06 23:56:00,74.7,63.9,29.87,ESE,117,0.0,0.0,69,0.00,,CLR,0.00,0.00,VWS V14.01,2013-07-07 04:56:00,